Regional Weather Roundup
Issued by NWS

Home | Current Version | Previous Version | Text Only | Print | Product List | Glossary On
Versions: 1 2 3 4 5 6 7 8 9 10 11 12 13 14 15 16 17 18 19 20 21 22 23 24 25 26 27
000
ASUS45 KTFX 282110
RWRMT
MONTANA REGIONAL WEATHER ROUNDUP
NATIONAL WEATHER SERVICE GREAT FALLS MT
300 PM MDT WED JUN 28 2017

NOTE: "FAIR" INDICATES FEW OR NO CLOUDS BELOW 12000 FEET WITH NO
SIGNIFICANT WEATHER AND/OR OBSTRUCTIONS TO VISIBILITY.

MTZ001>007-043-282200-
WEST OF THE DIVIDE

CITY           SKY/WX    TMP DP  RH WIND       PRES   REMARKS
KALISPELL        N/A     80  35  19 SW18G25   29.76S
MISSOULA       PTSUNNY   78  35  21 NW12      29.79F
BUTTE          CLOUDY    69  39  33 NE7       29.89S
MULLAN PASS    PTSUNNY   60  35  39 VRB3      29.97S
ANACONDA         N/A     73  28  19 W16G23    29.85F
DEER LODGE       N/A     72  32  23 NW14G21   29.86R
EUREKA           N/A     79  32  18 MISG      29.73S
HAMILTON         N/A     73  36  25 N8        29.82F
$$

MTZ008-052>055-282200-
SOUTHWEST MONTANA

CITY           SKY/WX    TMP DP  RH WIND       PRES   REMARKS
BOZEMAN        CLOUDY    62  43  49 NW16G25   29.87R THUNDER
DILLON         CLOUDY    70  41  34 W32G38    29.85S
W YELLOWSTONE  CLOUDY    63  41  45 SW25G32   29.94F
ENNIS          SUNNY     72  28  20 W15       29.91R
THREE FORKS      N/A     58  50  75 NW8       29.86S
$$

MTZ009-010-012-014-046-048-049-054-282200-
EAST SLOPES AND CENTRAL MONTANA

CITY           SKY/WX    TMP DP  RH WIND       PRES   REMARKS
CUT BANK         N/A     76  29  17 NW23      29.73F
GREAT FALLS    CLOUDY    78  28  16 W16G28    29.75S
MALMSTROM AFB  MOSUNNY   76  29  17 W15G22    29.75S
HELENA         SUNNY     80  29  15 W13       29.79F
CHOTEAU          N/A     73  32  21 VRB5G13   29.77F
$$

MTZ011-013-016-021-045-047-050-051-282200-
NORTH CENTRAL MONTANA

CITY           SKY/WX    TMP DP  RH WIND       PRES   REMARKS
HAVRE          MOSUNNY   82  31  15 SW17G23   29.66F
LEWISTOWN      PTSUNNY   75  29  18 NW18G26   29.77R
N BAR RANCH      N/A     75  30  19 NW18      29.81R
CHINOOK          N/A     79  34  19 W14       29.66R
FORT BENTON      N/A     81  27  13 CALM      29.71S
$$

MTZ017>020-022>027-061-062-282200-
NORTHEAST MONTANA

CITY           SKY/WX    TMP DP  RH WIND       PRES   REMARKS
GLASGOW        MOSUNNY   76  43  30 E17       29.68F
JORDAN           N/A     84  38  19 W10G30    29.65F
SIDNEY         SUNNY     80  32  17 N7        29.71S
WOLF POINT     CLOUDY    73  46  38 SE12G18   29.70F
MALTA          MOSUNNY   82  43  24 W8        29.64F
PLENTYWOOD       N/A     66  50  55 CALM      29.75R
POPLAR           N/A     66  46  48 SE13      29.71F
$$

MTZ028>42-056>058-282200-
SOUTHCENTRAL AND SOUTHEAST MONTANA

CITY           SKY/WX    TMP DP  RH WIND       PRES   REMARKS
BAKER          CLOUDY    82  29  14 CALM      29.73F
BILLINGS       CLOUDY    74  43  32 E7        29.76F
LIVINGSTON     CLOUDY    64  39  39 N32G45    29.85R
MILES CITY     PTSUNNY   82  51  34 CALM      29.66F
BIG TIMBER     CLOUDY    61  46  59 SW8G21    29.85R
LAUREL           N/A     77  41  27 S3        29.79R
$$

REGIONAL REPORTS...DAKOTAS

CITY           SKY/WX    TMP DP  RH WIND       PRES   REMARKS
WILLISTON      SUNNY     81  37  20 N6        29.72F
MINOT          SUNNY     80  45  28 N14       29.67F
DICKINSON      SUNNY     81  33  17 E7        29.72F
BEACH            N/A     79  25  13 S6G13     29.76F
CROSBY           N/A     77  43  29 NW7G15    29.73S
TIOGA            N/A     77  43  29 N13       29.75S
WATFORD CITY     N/A     79  43  27 N9        29.71F
BISMARCK       MOSUNNY   82  42  24 N12       29.69S
GRAND FORKS    CLOUDY    66  63  90 N13       29.58R
FARGO          CLOUDY    67  62  84 NW21G26   29.55R
BUFFALO SD       N/A     84  29  13 VRB3      29.69F
RAPID CITY     CLOUDY    80  46  30 VRB3      29.76S
$$

REGIONAL REPORTS...WYOMING/IDAHO/WASHINGTON

CITY           SKY/WX    TMP DP  RH WIND       PRES   REMARKS
GILLETTE       PTSUNNY   77  51  40 SE8       29.75F
SHERIDAN       CLOUDY    83  47  28 N7        29.74F
BUFFALO WY     SUNNY     79  48  33 NW13G20   29.79F
CODY           CLOUDY    73  43  33 SW9G18    29.83F
YELLOWSTONE LA   N/A     59  37  44 W8        30.02F
IDAHO FALLS    CLOUDY    69  49  48 SW10      29.90S
SALMON         CLOUDY    66  50  55 N8        29.82S
BOISE            N/A     82  32  16 NW8G22    29.86F
SPOKANE          N/A     75  42  30 SW15      29.85F
$$

REGIONAL REPORTS...ALBERTA

CITY           SKY/WX    TMP DP  RH WIND       PRES   REMARKS
EDMONTON       LGT RAIN  59  55  88 N17G23    29.72R
CALGARY        CLOUDY    64  45  48 N24G32    29.80R
LETHBRIDGE     PTSUNNY   75  32  20 N9G17     29.70R
MEDICINE HAT   MOSUNNY   77  43  29 W7        29.66R
WATERTON GATE    N/A     72  34  25 W8G22       N/A
MILK RIVER       N/A     75  34  22 NW21G30     N/A
$$

REGIONAL REPORTS...SASKATCHEWAN

CITY           SKY/WX    TMP DP  RH WIND       PRES   REMARKS
SWIFT CURRENT  SUNNY     73  45  35 E9G18     29.68F
REGINA         PTSUNNY   70  48  46 NW9       29.72F
SASKATOON      MOSUNNY   70  46  43 NW3       29.69F
VAL MARIE        N/A     75  39  27 S13G18      N/A
ROCKGLEN         N/A     68  46  45 S13         N/A
ASSINIBOIA       N/A     63  50  63 NW8         N/A
$$




USA.gov is the U.S. government's official web portal to all federal, state and local government web resources and services.